User: anonymous
Location: Caltech
(34.1382°N, 118.1253°W)
Time: 06:45:40
(UTC-07:00)
Language:

Iridium 72 - Orbit

View from above orbital plane
View from above orbital plane
View from above satellite
View from above satellite

Ground track
Ground track

The orbit data is extracted from the following two-line orbital elements,

1 25343U 98032B   14243.28203668  .00000184  00000-0  58611-4 0  9334
2 25343 086.3942 290.6019 0002390 108.5280 303.6180 14.34217435852770
Epoch (UTC): 31 August 2014 06:46:07
Eccentricity: 0.0002390
inclination: 86.3942°
perigee height: 776 km
apogee height: 779 km
right ascension of ascending node: 290.6019°
argument of perigee: 108.5280°
revolutions per day: 14.34217435
mean anomaly at epoch: 303.6180°
orbit number at epoch: 85277

The dashed part of the orbit path shows where the satellite is in the earth's shadow,  

DLR